TimeCST,TemperatureF,Dew PointF,Humidity,Sea Level PressureIn,VisibilityMPH,Wind Direction,Wind SpeedMPH,Gust SpeedMPH,PrecipitationIn,Events,Conditions,WindDirDegrees,DateUTC
12:15 AM,42.8,33.8,70,30.17,10.0,ENE,4.6,-,N/A,,Clear,60,2012-12-06 06:15:00
12:35 AM,41.0,33.8,76,30.16,10.0,East,5.8,-,N/A,,Clear,80,2012-12-06 06:35:00
12:55 AM,41.0,33.8,76,30.15,10.0,East,4.6,-,N/A,,Clear,100,2012-12-06 06:55:00
1:15 AM,41.0,35.6,81,30.15,10.0,East,4.6,-,N/A,,Clear,90,2012-12-06 07:15:00
1:35 AM,41.0,33.8,76,30.16,10.0,East,3.5,-,N/A,,Clear,90,2012-12-06 07:35:00
1:55 AM,41.0,33.8,76,30.16,10.0,East,3.5,-,N/A,,Clear,90,2012-12-06 07:55:00
2:15 AM,39.2,33.8,81,30.16,10.0,East,3.5,-,N/A,,Clear,100,2012-12-06 08:15:00
2:35 AM,39.2,35.6,87,30.15,10.0,East,5.8,-,N/A,,Clear,100,2012-12-06 08:35:00
2:55 AM,39.2,35.6,87,30.14,10.0,ENE,4.6,-,N/A,,Clear,70,2012-12-06 08:55:00
3:15 AM,39.2,35.6,87,30.14,10.0,ENE,5.8,-,N/A,,Clear,70,2012-12-06 09:15:00
3:35 AM,39.2,35.6,87,30.13,10.0,ENE,4.6,-,N/A,,Clear,60,2012-12-06 09:35:00
3:55 AM,37.4,33.8,87,30.13,10.0,Calm,Calm,-,N/A,,Clear,0,2012-12-06 09:55:00
4:15 AM,35.6,33.8,93,30.12,7.0,NE,3.5,-,N/A,,Clear,40,2012-12-06 10:15:00
4:35 AM,33.8,32.0,93,30.12,7.0,East,4.6,-,N/A,,Clear,80,2012-12-06 10:35:00
4:55 AM,35.6,33.8,93,30.12,10.0,ENE,4.6,-,N/A,,Clear,70,2012-12-06 10:55:00
5:15 AM,35.6,33.8,93,30.12,7.0,Calm,Calm,-,N/A,,Mostly Cloudy,0,2012-12-06 11:15:00
5:35 AM,35.6,35.6,100,30.12,7.0,Calm,Calm,-,N/A,,Unknown,0,2012-12-06 11:35:00
6:53 AM,41.0,37.4,87,30.11,12.0,ESE,5.8,-,N/A,,Overcast,110,2012-12-06 12:53:00
7:58 AM,42.8,37.4,81,30.10,15.0,ESE,6.9,-,N/A,,Overcast,110,2012-12-06 13:58:00
8:54 AM,44.6,37.4,76,30.10,15.0,SE,8.1,-,N/A,,Overcast,130,2012-12-06 14:54:00
9:55 AM,44.6,39.2,81,30.09,15.0,SE,8.1,-,N/A,,Overcast,140,2012-12-06 15:55:00
10:56 AM,48.2,39.2,71,30.07,15.0,SSE,5.8,-,N/A,,Overcast,150,2012-12-06 16:56:00
11:56 AM,51.8,41.0,67,30.04,20.0,ESE,4.6,-,N/A,,Overcast,120,2012-12-06 17:56:00
12:55 PM,55.4,42.8,63,30.11,15.0,South,4.6,-,N/A,,Mostly Cloudy,170,2012-12-06 18:55:00
1:55 PM,57.2,42.8,59,29.99,15.0,South,5.8,-,N/A,,Mostly Cloudy,170,2012-12-06 19:55:00
2:55 PM,57.2,42.8,59,29.99,15.0,SSE,5.8,-,N/A,,Overcast,160,2012-12-06 20:55:00
3:55 PM,57.2,44.6,63,29.98,15.0,SSE,5.8,-,N/A,,Overcast,160,2012-12-06 21:55:00
4:55 PM,55.4,44.6,67,29.98,15.0,SSE,4.6,-,N/A,,Overcast,160,2012-12-06 22:55:00
5:55 PM,55.4,46.4,72,29.98,15.0,SSE,5.8,-,N/A,,Overcast,160,2012-12-06 23:55:00
6:55 PM,53.6,46.4,77,29.98,10.0,SSE,3.5,-,N/A,,Overcast,160,2012-12-07 00:55:00
7:15 PM,53.6,48.2,82,29.98,10.0,SSE,5.8,-,N/A,,Overcast,160,2012-12-07 01:15:00
7:35 PM,53.6,48.2,82,29.98,10.0,South,5.8,-,N/A,,Overcast,170,2012-12-07 01:35:00
7:55 PM,53.6,50.0,88,29.98,10.0,South,6.9,-,N/A,,Overcast,180,2012-12-07 01:55:00
8:15 PM,53.6,50.0,88,29.98,10.0,SSE,6.9,-,N/A,,Overcast,160,2012-12-07 02:15:00
8:35 PM,53.6,50.0,88,29.98,10.0,SSE,4.6,-,N/A,,Overcast,150,2012-12-07 02:35:00
8:55 PM,53.6,50.0,88,29.97,10.0,SSE,4.6,-,N/A,,Overcast,150,2012-12-07 02:55:00
9:15 PM,53.6,50.0,88,29.97,10.0,Calm,Calm,-,N/A,,Overcast,0,2012-12-07 03:15:00
9:35 PM,53.6,50.0,88,29.97,10.0,Calm,Calm,-,N/A,,Overcast,0,2012-12-07 03:35:00
9:55 PM,53.6,51.8,94,29.98,10.0,SSE,3.5,-,N/A,,Overcast,160,2012-12-07 03:55:00
10:15 PM,53.6,51.8,94,29.98,10.0,Calm,Calm,-,N/A,,Overcast,0,2012-12-07 04:15:00
10:35 PM,53.6,51.8,94,29.98,7.0,Calm,Calm,-,N/A,,Overcast,0,2012-12-07 04:35:00
10:55 PM,53.6,51.8,94,29.98,7.0,Calm,Calm,-,N/A,,Unknown,0,2012-12-07 04:55:00
11:15 PM,53.6,51.8,94,29.98,5.0,Calm,Calm,-,N/A,,Overcast,0,2012-12-07 05:15:00
11:35 PM,53.6,51.8,94,29.97,7.0,Calm,Calm,-,N/A,,Unknown,0,2012-12-07 05:35:00
11:55 PM,53.6,51.8,94,29.97,5.0,Calm,Calm,-,N/A,,Mist,0,2012-12-07 05:55:00